Weather reports worldwide

Advertisment
Lichteiland Goeree, Netherlands (6320): temperature & dewpoint: 16.02.2020 07:00:00 - 22.02.2020 07:00:00 (CET)Lichteiland Goeree, Netherlands (6320): water temperature: 16.02.2020 07:00:00 - 22.02.2020 07:00:00 (CET)Lichteiland Goeree, Netherlands (6320): wind speed & gusts: 16.02.2020 07:00:00 - 22.02.2020 07:00:00 (CET)Lichteiland Goeree, Netherlands (6320): wind direction: 16.02.2020 07:00:00 - 22.02.2020 07:00:00 (CET)Lichteiland Goeree, Netherlands (6320): reduced air pressure: 16.02.2020 07:00:00 - 22.02.2020 07:00:00 (CET)Lichteiland Goeree, Netherlands (6320): visibility: 16.02.2020 07:00:00 - 22.02.2020 07:00:00 (CET)
Date & Time tt [°C] td [°C] tw [°C] ff [km/h] ff [kn] fx [km/h] fx [kn] dd ppp [hPa] vv [km]
22.02.2020 07:00:00 8,3 5,9 8,0 68 37 79 43 SW 1015,5 10
22.02.2020 06:00:00 8,6 5,9 8,0 72 39 83 45 SW 1015,8 10
22.02.2020 05:00:00 8,6 6,2 8,0 70 38 83 45 SW 1016,2 10
22.02.2020 04:00:00 9,0 6,1 8,0 68 37 83 45 WSW 1017,0 10
22.02.2020 03:00:00 9,1 6,2 8,0 80 43 86 47 WSW 1017,1 10
22.02.2020 02:00:00 9,3 5,7 8,0 68 37 79 43 WSW 1017,7 11
22.02.2020 01:00:00 9,3 6,2 8,0 58 31 83 45 WSW 1019,2 11
22.02.2020 00:00:00 9,5 5,5 8,0 67 36 79 43 WSW 1019,6 10
21.02.2020 23:00:00 9,5 5,7 8,0 63 34 76 41 WSW 1019,8 10
21.02.2020 22:00:00 9,1 6,5 8,0 59 32 65 35 SW 1020,3 10
21.02.2020 21:00:00 9,0 6,5 8,0 59 32 65 35 SW 1021,2 10
21.02.2020 20:00:00 8,9 6,4 8,0 59 32 65 35 SW 1021,2 10
21.02.2020 19:00:00 8,8 6,2 8,0 52 28 65 35 WSW 1021,6 9
21.02.2020 18:00:00 8,9 5,9 8,0 57 31 65 35 WSW 1022,5 10
21.02.2020 17:00:00 8,7 6,1 8,0 59 32 61 33 SW 1022,0 10
21.02.2020 16:00:00 8,3 6,4 8,0 48 26 58 31 SW 1022,4 10
21.02.2020 15:00:00 8,3 6,1 8,0 50 27 58 31 SW 1022,6 10
21.02.2020 14:00:00 8,6 5,1 8,0 54 29 58 31 WSW 1022,8 10
21.02.2020 13:00:00 8,4 4,7 8,0 52 28 58 31 WSW 1023,7 10
21.02.2020 12:00:00 8,0 4,3 8,0 46 25 54 29 WSW 1023,7 10
21.02.2020 11:00:00 7,9 3,9 8,0 46 25 50 27 WSW 1023,8 10
21.02.2020 10:00:00 7,9 3,8 8,0 44 24 50 27 W 1023,4 10
21.02.2020 09:00:00 7,8 3,7 8,0 44 24 50 27 W 1023,4 10
21.02.2020 08:00:00 7,6 3,1 8,0 44 24 50 27 W 1022,9 10
21.02.2020 07:00:00 7,3 2,6 8,0 52 28 58 31 W 1022,6 10
21.02.2020 06:00:00 7,2 2,4 8,0 54 29 58 31 W 1022,1 10
21.02.2020 05:00:00 7,2 2,1 8,0 55 30 61 33 W 1021,6 10
21.02.2020 04:00:00 7,1 1,9 8,0 57 31 65 35 W 1021,3 10
21.02.2020 03:00:00 7,0 1,2 8,0 57 31 61 33 W 1020,5 10
21.02.2020 02:00:00 7,2 1,6 8,0 61 33 65 35 W 1019,9 10
21.02.2020 01:00:00 7,1 0,2 8,0 59 32 68 37 WNW 1018,5 10
21.02.2020 00:00:00 7,1 0,4 8,0 65 35 68 37 WNW 1017,6 10
20.02.2020 23:00:00 7,3 0,6 8,0 67 36 72 39 WNW 1016,5 10
20.02.2020 22:00:00 7,0 0,7 8,0 70 38 79 43 WNW 1015,0 10
20.02.2020 21:00:00 7,0 2,6 8,0 61 33 68 37 WNW 1013,1 7
20.02.2020 20:00:00 7,4 3,4 8,0 61 33 65 35 WNW 1011,6 10
20.02.2020 19:00:00 6,3 3,2 7,7 65 35 68 37 NW 1010,1 9
20.02.2020 18:00:00 7,5 6,1 8,0 63 34 79 43 WNW 1007,2 7
20.02.2020 17:00:00 8,4 8,1 7,8 61 33 68 37 SW 1005,5 3,5
20.02.2020 16:00:00 8,7 7,5 8,0 68 37 76 41 SW 1006,3 7
20.02.2020 15:00:00 9,5 6,6 8,0 43 23 58 31 SSW 1007,3 18
20.02.2020 14:00:00 9,3 6,5 8,0 54 29 58 31 SSW 1008,2 10
20.02.2020 13:00:00 9,0 6,4 8,0 57 31 61 33 SSW 1009,3 10
20.02.2020 12:00:00 8,5 6,6 8,0 55 30 65 35 SSW 1010,7 10
20.02.2020 11:00:00 8,6 6,2 8,0 61 33 65 35 SSW 1011,0 10
20.02.2020 10:00:00 8,5 6,3 8,0 52 28 54 29 SSW 1011,8 10
20.02.2020 09:00:00 8,5 6,4 8,0 52 28 58 31 SSW 1012,3 10
20.02.2020 08:00:00 8,3 7,1 8,0 44 24 47 25 SW 1012,5 10
20.02.2020 07:00:00 8,0 7,3 8,0 42 23 50 27 SW 1013,0 7
20.02.2020 06:00:00 8,1 7,3 8,0 44 24 47 25 SW 1013,3 10
20.02.2020 05:00:00 8,3 7,1 8,0 50 27 54 29 SW 1013,6 10
20.02.2020 04:00:00 8,3 7,2 8,0 50 27 58 31 SW 1013,8 10
20.02.2020 03:00:00 8,3 7,2 8,0 54 29 58 31 SW 1014,3 10
20.02.2020 02:00:00 8,3 7,4 8,0 52 28 58 31 SW 1014,8 10
20.02.2020 01:00:00 8,3 7,4 8,0 50 27 58 31 SW 1015,3 14
20.02.2020 00:00:00 8,0 7,1 8,0 50 27 54 29 SSW 1015,9 10
19.02.2020 23:00:00 7,6 6,7 8,0 48 26 54 29 SW 1016,7 10
19.02.2020 22:00:00 7,3 6,0 8,0 50 27 50 27 SSW 1017,3 10
19.02.2020 21:00:00 7,0 5,7 8,0 46 25 50 27 SSW 1018,0 10
19.02.2020 20:00:00 7,3 5,3 8,0 39 21 43 23 SW 1018,8 10
19.02.2020 19:00:00 7,5 3,7 8,0 41 22 47 25 WSW 1019,0 10
19.02.2020 18:00:00 7,8 4,0 8,0 41 22 43 23 W 1019,3 10
19.02.2020 17:00:00 7,7 3,4 8,0 42 23 47 25 W 1019,6 10
19.02.2020 16:00:00 7,2 3,0 8,0 44 24 43 23 WSW 1020,0 10
19.02.2020 15:00:00 6,9 2,8 8,0 42 23 43 23 WSW 1020,2 10
19.02.2020 14:00:00 6,6 2,1 8,0 42 23 47 25 W 1020,5 10
19.02.2020 13:00:00 6,5 1,4 8,0 48 26 50 27 W 1020,2 10
19.02.2020 12:00:00 6,5 1,4 8,0 46 25 54 29 W 1020,0 10
19.02.2020 11:00:00 6,3 1,5 8,0 52 28 58 31 W 1019,5 10
19.02.2020 10:00:00 6,2 1,5 8,0 52 28 58 31 W 1018,9 10
19.02.2020 09:00:00 6,4 1,0 8,0 50 27 58 31 WNW 1017,9 10
19.02.2020 08:00:00 6,1 1,4 8,0 52 28 58 31 WNW 1017,2 10
19.02.2020 07:00:00 6,3 1,6 8,0 50 27 65 35 WNW 1016,7 19
19.02.2020 06:00:00 6,4 1,5 8,0 59 32 65 35 WNW 1015,7 10
19.02.2020 05:00:00 6,6 1,9 8,0 59 32 61 33 WNW 1014,6 10
19.02.2020 04:00:00 6,6 2,1 8,0 59 32 61 33 WNW 1014,2 10
19.02.2020 03:00:00 7,2 1,6 7,6 54 29 68 37 WNW 1013,3 23
19.02.2020 02:00:00 8,0 3,6 8,0 46 25 58 31 WNW 1012,3 10
19.02.2020 01:00:00 7,1 2,9 8,0 52 28 65 35 W 1012,1 10
19.02.2020 00:00:00 8,7 5,5 8,0 54 29 65 35 WSW 1011,9 10
18.02.2020 23:00:00 8,3 5,7 7,6 63 34 76 41 SW 1011,9 10
18.02.2020 22:00:00 8,6 6,2 8,0 63 34 72 39 WSW 1013,2 9
18.02.2020 21:00:00 8,5 6,2 8,0 59 32 68 37 SW 1014,3 10
18.02.2020 20:00:00 8,6 6,2 8,0 61 33 68 37 SW 1015,2 10
18.02.2020 19:00:00 8,7 5,9 8,0 59 32 68 37 SW 1015,8 10
18.02.2020 18:00:00 8,8 5,5 8,0 63 34 68 37 WSW 1016,1 10
18.02.2020 17:00:00 8,8 5,3 8,0 54 29 61 33 WSW 1017,2 10
18.02.2020 16:00:00 8,6 4,9 8,0 59 32 65 35 WSW 1017,9 10
18.02.2020 15:00:00 8,4 4,7 8,0 54 29 58 31 WSW 1018,3 10
18.02.2020 14:00:00 8,1 4,1 8,0 54 29 58 31 WSW 1019,0 10
18.02.2020 13:00:00 7,9 3,5 8,0 54 29 58 31 WSW 1019,2 10
18.02.2020 12:00:00 7,6 4,0 8,0 54 29 61 33 WSW 1019,7 10
18.02.2020 11:00:00 7,6 3,5 8,0 55 30 58 31 WSW 1019,7 10
18.02.2020 10:00:00 7,6 3,5 8,0 52 28 58 31 WSW 1019,3 10
18.02.2020 09:00:00 7,5 3,2 8,0 54 29 58 31 WSW 1019,4 10
18.02.2020 08:00:00 7,5 2,7 8,0 50 27 58 31 W 1018,9 10
18.02.2020 07:00:00 7,6 2,9 8,0 55 30 58 31 W 1018,6 10
18.02.2020 06:00:00 7,6 2,9 8,0 59 32 61 33 W 1018,3 10
18.02.2020 05:00:00 7,7 2,4 8,0 59 32 65 35 W 1018,1 10
18.02.2020 04:00:00 7,8 2,2 8,0 57 31 68 37 W 1017,7 10
18.02.2020 03:00:00 7,9 2,6 8,0 61 33 61 33 W 1017,4 10
18.02.2020 02:00:00 8,2 3,6 8,0 54 29 61 33 W 1016,8 10
18.02.2020 01:00:00 8,5 4,2 8,0 55 30 65 35 W 1015,7 10
18.02.2020 00:00:00 8,7 5,2 8,0 57 31 61 33 W 1014,9 10
17.02.2020 23:00:00 8,9 5,7 8,0 54 29 58 31 W 1014,1 10
17.02.2020 22:00:00 9,2 5,6 8,0 54 29 61 33 W 1013,3 10
17.02.2020 21:00:00 9,0 5,9 8,0 59 32 65 35 WSW 1012,4 10
17.02.2020 20:00:00 9,2 6,0 8,0 54 29 58 31 WSW 1012,2 10
17.02.2020 19:00:00 8,9 6,9 8,0 48 26 54 29 WSW 1010,9 9
17.02.2020 18:00:00 8,6 6,8 8,0 54 29 58 31 WSW 1010,3 8
17.02.2020 17:00:00 8,2 6,0 8,0 50 27 65 35 SW 1009,7 12
17.02.2020 16:00:00 8,4 4,9 8,0 59 32 79 43 WSW 1009,4 10
17.02.2020 15:00:00 8,1 5,1 8,0 54 29 61 33 SW 1009,2 10
17.02.2020 14:00:00 8,6 4,6 8,0 55 30 65 35 WSW 1009,0 10
17.02.2020 13:00:00 7,7 4,5 8,0 55 30 61 33 SW 1009,3 10
17.02.2020 12:00:00 5,9 5,3 8,0 65 35 76 41 WSW 1009,3 0,6
17.02.2020 11:00:00 8,1 4,9 8,0 54 29 65 35 SW 1009,0 12
17.02.2020 10:00:00 7,9 4,8 8,0 54 29 68 37 SW 1008,3 12
17.02.2020 09:00:00 7,8 4,9 8,0 54 29 65 35 SW 1008,4 12
17.02.2020 08:00:00 7,8 5,0 8,0 50 27 65 35 SW 1008,0 12
17.02.2020 07:00:00 8,3 5,5 8,0 43 23 58 31 SW 1008,4 10
17.02.2020 06:00:00 9,0 4,1 8,0 47 25 65 35 WSW 1008,4 10
17.02.2020 05:00:00 9,0 2,1 8,0 58 31 79 43 WSW 1008,0 11
17.02.2020 04:00:00 8,7 2,6 8,0 58 31 76 41 WSW 1007,6 11
17.02.2020 03:00:00 8,7 1,4 8,0 61 33 76 41 W 1006,9 12
17.02.2020 02:00:00 8,5 3,7 8,0 58 31 76 41 WSW 1005,8 13
17.02.2020 01:00:00 7,8 3,6 8,0 61 33 83 45 W 1004,5 14
17.02.2020 00:00:00 9,5 3,5 8,0 68 37 86 47 WSW 1003,0 10
16.02.2020 23:00:00 9,7 5,3 8,0 76 41 83 45 WSW 1001,7 9
16.02.2020 22:00:00 9,5 6,6 8,0 68 37 72 39 WSW 1000,7 10
16.02.2020 21:00:00 9,0 6,5 8,0 63 34 72 39 WSW 999,9 10
16.02.2020 20:00:00 9,2 6,2 8,0 65 35 68 37 WSW 998,7 10
16.02.2020 19:00:00 8,4 7,1 8,0 54 29 61 33 WSW 997,9 6
16.02.2020 18:00:00 8,1 7,2 8,0 55 30 65 35 W 997,4 7
16.02.2020 17:00:00 8,6 8,6 7,8 46 25 58 31 W 995,0 2,4
16.02.2020 16:00:00 9,6 9,6 8,0 35 19 58 31 WSW 993,5 1,2
16.02.2020 15:00:00 10,3 10,2 8,0 50 27 68 37 SW 993,4 2,1
16.02.2020 14:00:00 10,8 10,8 8,0 59 32 65 35 SSW 994,2 4,5
16.02.2020 13:00:00 10,4 10,4 8,0 55 30 61 33 SSW 995,5 3,5
16.02.2020 12:00:00 10,4 10,4 8,0 59 32 68 37 SSW 996,7 3,3
16.02.2020 11:00:00 10,6 10,5 8,0 70 38 76 41 SSW 996,8 2,7
16.02.2020 10:00:00 11,2 10,4 8,0 74 40 79 43 SSW 996,4 10
16.02.2020 09:00:00 11,6 10,2 8,0 72 39 79 43 SSW 996,3 10
16.02.2020 08:00:00 11,0 10,0 8,0 72 39 79 43 SSW 996,4 6
16.02.2020 07:00:00 11,1 9,7 8,0 70 38 76 41 SSW 997,4 10

tt = temperature
td = dewpoint
tw = water temperature
ff = wind speed
fx = gusts
dd = wind direction
ppp = reduced air pressure
vv = visibility

Next stations